Regional Weather Roundup
Issued by NWS Little Rock, AR

Home | Current Version | Previous Version | Text Only | Print | Product List | Glossary Off
Versions: 1 2 3 4 5 6 7 8 9 10 11 12 13 14 15 16 17 18 19 20 21 22 23 24 25 26 27 28 29 30 31

000
ASUS44 KLZK 260505
RWRLZK

WEATHER ROUNDUP FOR ARKANSAS
NATIONAL WEATHER SERVICE LITTLE ROCK AR
1200 AM CDT WED JUL 26 2017

NOTE: "FAIR" INDICATES FEW OR NO CLOUDS BELOW 12,000 FEET WITH NO
SIGNIFICANT WEATHER AND/OR OBSTRUCTIONS TO VISIBILITY.

ARZ001-003-010-029-260600-
NORTHWEST ARKANSAS

CITY           SKY/WX    TMP DP  RH WIND       PRES   REMARKS
FAYETTEVILLE   CLEAR     75  75 100 S3        30.10S
FORT SMITH     CLEAR     84  73  69 CALM      30.04S HX  90
HARRISON       CLEAR     75  70  84 CALM      30.10F
BENTONVILLE    CLEAR     81  70  69 CALM      30.09F
ROGERS         CLEAR     79  72  79 SE6       30.11R
SILOAM SPGS    CLEAR     79  70  73 S7        30.09S
HIGHFILL       CLEAR     79  73  82 SW5       30.09S
$$

ARZ004-005-016-260600-
NORTH CENTRAL ARKANSAS

CITY           SKY/WX    TMP DP  RH WIND       PRES   REMARKS
BATESVILLE     CLEAR     82  73  74 S5        30.06S HX  88
FLIPPIN        CLEAR     79  68  69 CALM      30.04F
MTN HOME       CLEAR     79  73  82 S5        30.07S
$$

ARZ040-041-260600-
WEST CENTRAL ARKANSAS

CITY           SKY/WX    TMP DP  RH WIND       PRES   REMARKS
MENA           CLEAR     77  75  94 CALM      30.10S
MOUNT IDA      CLEAR     75  73  93 CALM      30.05F
$$

ARZ009-017-025-026-028-260600-
NORTHEAST ARKANSAS

CITY           SKY/WX    TMP DP  RH WIND       PRES   REMARKS
JONESBORO      CLEAR     79  78  97 CALM      30.06R
WALNUT RIDGE   CLEAR     81  75  83 S6        30.06R HX  86
BLYTHEVILLE    CLEAR     81  78  91 S3        30.07S HX  89
$$

ARZ022-023-033-042-044-260600-
CENTRAL ARKANSAS

CITY           SKY/WX    TMP DP  RH WIND       PRES   REMARKS
LITTLE ROCK    CLEAR     83  76  79 SW8       30.06R HX  91
N LITTLE ROCK    N/A     82  74  78 CALM      30.05R HX  88
JACKSONVILLE   CLEAR     83  78  84 CALM      30.06R HX  92
CONWAY           N/A     82  75  78 CALM      30.04R HX  89
SEARCY         CLEAR     79  79 100 CALM      30.07R
HOT SPRINGS    CLEAR     80  75  84 CALM      30.07S HX  85
RUSSELLVILLE   CLEAR     79  75  87 CALM      30.05R
CLINTON        FAIR      77  75  94 CALM      30.07R
$$

ARZ036-260600-
EAST ARKANSAS

CITY           SKY/WX    TMP DP  RH WIND       PRES   REMARKS
WEST MEMPHIS   CLEAR     77  76  96 S5        30.07R
$$

ARZ050-053-066-070-073-260600-
SOUTHWEST ARKANSAS

CITY           SKY/WX    TMP DP  RH WIND       PRES   REMARKS
ARKADELPHIA    FAIR      77  76  96 CALM      30.07R
CAMDEN         CLEAR     77  72  83 SW3       30.07S
TEXARKANA      CLEAR     79  71  76 S6        30.07R
EL DORADO      CLEAR     75  71  87 CALM      30.09R
DE QUEEN       CLEAR     76  76 100 CALM      30.04F FOG
$$

ARZ056-057-069-260600-
SOUTHEAST ARKANSAS

CITY           SKY/WX    TMP DP  RH WIND       PRES   REMARKS
PINE BLUFF     CLEAR     81  75  82 SW5       30.07R HX  87
STUTTGART      CLEAR     82  64  54 SE9       30.08R
MONTICELLO     CLEAR     81  73  76 CALM      30.09R HX  86

$$






USA.gov is the U.S. government's official web portal to all federal, state and local government web resources and services.